This is the latest recevied weather packets stored in our database for station/object AA1FF. If no packets are shown the sender has not sent any weather packets the latest 10 day(s).
| Time | Temp. | Humidity | Pressure | Rain* | Wind** | Luminosity | Snow |
|---|---|---|---|---|---|---|---|
| 1777919026 | 20° C | 32% | 1009 hPa | 0 mm | - | 828 W/m² | - |
| 1777918727 | 20° C | 31% | 1009 hPa | 0 mm | - | 842 W/m² | - |
| 1777918426 | 20° C | 31% | 1009 hPa | 0 mm | - | 846 W/m² | - |
| 1777918127 | 20° C | 31% | 1009 hPa | 0 mm | - | 848 W/m² | - |
| 1777917826 | 20° C | 31% | 1009 hPa | 0 mm | - | 857 W/m² | - |
| 1777917526 | 19.44° C | 35% | 1009 hPa | 0 mm | - | 864 W/m² | - |
| 1777917228 | 19.44° C | 32% | 1009 hPa | 0 mm | - | 873 W/m² | - |
| 1777916926 | 19.44° C | 32% | 1009 hPa | 0 mm | - | 883 W/m² | - |
| 1777916631 | 19.44° C | 31% | 1009 hPa | 0 mm | - | 835 W/m² | - |
| 1777916325 | 19.44° C | 33% | 1009 hPa | 0 mm | - | 896 W/m² | - |
| 1777916027 | 18.89° C | 33% | 1009 hPa | 0 mm | - | 825 W/m² | - |
| 1777915726 | 18.89° C | 31% | 1009 hPa | 0 mm | - | 679 W/m² | - |
| 1777915423 | 19.44° C | 31% | 1009 hPa | 0 mm | - | 899 W/m² | - |
| 1777915128 | 18.89° C | 32% | 1009 hPa | 0 mm | - | 910 W/m² | - |
| 1777914826 | 18.89° C | 32% | 1009 hPa | 0 mm | - | 904 W/m² | - |
| 1777914528 | 18.89° C | 31% | 1009 hPa | 0 mm | - | 911 W/m² | - |
| 1777914224 | 18.89° C | 31% | 1009 hPa | 0 mm | - | 920 W/m² | - |
| 1777913923 | 18.89° C | 32% | 1009 hPa | 0 mm | - | 917 W/m² | - |
| 1777913625 | 18.33° C | 32% | 1009 hPa | 0 mm | - | 944 W/m² | - |
| 1777913326 | 18.33° C | 33% | 1009 hPa | 0 mm | - | 914 W/m² | - |
| 1777913028 | 18.89° C | 32% | 1010 hPa | 0 mm | - | 935 W/m² | - |
| 1777912728 | 18.89° C | 32% | 1010 hPa | 0 mm | - | 919 W/m² | - |
| 1777912425 | 18.33° C | 32% | 1010 hPa | 0 mm | - | 910 W/m² | - |
| 1777912125 | 18.33° C | 32% | 1010 hPa | 0 mm | - | 917 W/m² | - |
| 1777911825 | 18.33° C | 32% | 1010 hPa | 0 mm | - | 920 W/m² | - |
* Rain latest hour (hover to see other rain measurements)
** Current wind speed in m/s (hover to see current wind gust speed)